Weather in Escuintla

Guatemala     14°17′59″N   90°46′53″W
temp.,
°C
wind,
m/s
gust,
m/s
humid.,
%
clouds,
%
prec.,
mm/h
press.,
hPa
HPBL,
m
15 may, sat
sat1500:00+24nne227615 0.1 101339
03:00+23nne237471 0.0 101162
06:00+23nne347361 0.0 101279
09:00+30s124639 0.0 1013957
12:00+32sw434334 0.0 10111479
15:00+31s3250100 0.3 10101117
18:00+26ssw1374100 0.9 1011115
21:00+24ne1181100 0.4 101426
16 may, sun
sun1600:00+24nnw1178100 0.4 101321
03:00+23nne117636 0.0 101217
06:00+23nne227410 0.0 101330
09:00+30sw2154100 0.0 1014801
12:00+32sw334858 0.0 10121752
15:00+32sw324978 0.4 10101707
18:00+26s127879 3.4 101278
21:00+25ene1186100 0.4 101332
17 may, mon
mon1700:00+23n228696 0.7 101335
03:00+23nne228686 1.0 101229
06:00+23ne1181100 1.4 101318
09:00+27s1270100 0.2 1014472
12:00+29ssw326375 1.9 10131150
15:00+28sw226786 2.3 10111027
18:00+25ssw118465 3.4 101259
21:00+24ene1189100 0.2 101412
18 may, tue
tue1800:00+23n119094 0.6 101426
03:00+22nne2288100 0.9 101228
06:00+22nne228662 1.0 101335
09:00+28ssw216774 0.0 1014755
12:00+31ssw325452 0.1 10121679
15:00+27s247485 1.3 1010383
18:00+25nw1183100 2.9 101130
21:00+24ne018873 0.5 101321
19 may, wed
wed1900:00+23n119064 1.6 101326
03:00+23nne229129 1.2 101247
06:00+22ne228834 1.4 101233
09:00+28s12678 0.0 1012709
12:00+30ssw325747 0.8 10111507
15:00+28s336675 2.0 10101113
18:00+25sw118066 3.1 101038
21:00+24nnw118616 0.1 101215